Year,Month,Day,Hour,Minute,Value (Times are PST for temperature in C)
2013,07,29,00,00,14.60
2013,07,29,00,01,14.60
2013,07,29,00,02,14.60
2013,07,29,00,03,14.60
2013,07,29,00,04,14.70
2013,07,29,00,05,14.70
2013,07,29,00,06,14.70
2013,07,29,00,07,14.70
2013,07,29,00,08,14.70
2013,07,29,00,09,14.80
2013,07,29,00,10,14.80
2013,07,29,00,11,14.80
2013,07,29,00,12,14.80
2013,07,29,00,13,14.80
2013,07,29,00,14,14.80
2013,07,29,00,15,14.80
2013,07,29,00,16,14.80
2013,07,29,00,17,14.80
2013,07,29,00,18,14.80
2013,07,29,00,19,14.80
2013,07,29,00,20,14.80
2013,07,29,00,21,14.80
2013,07,29,00,22,14.80
2013,07,29,00,23,14.90
2013,07,29,00,24,14.90
2013,07,29,00,25,14.90
2013,07,29,00,26,14.90
2013,07,29,00,27,14.90
2013,07,29,00,28,14.90
2013,07,29,00,29,14.90
2013,07,29,00,30,14.90
2013,07,29,00,31,14.90
2013,07,29,00,32,14.90
2013,07,29,00,33,14.90
2013,07,29,00,34,14.90
2013,07,29,00,35,14.90
2013,07,29,00,36,14.90
2013,07,29,00,37,14.90
2013,07,29,00,38,14.90
2013,07,29,00,39,14.90
2013,07,29,00,40,14.90
2013,07,29,00,41,14.90
2013,07,29,00,42,14.90
2013,07,29,00,43,14.90
2013,07,29,00,44,14.90
2013,07,29,00,45,14.90
2013,07,29,00,46,14.80
2013,07,29,00,47,14.80
2013,07,29,00,48,14.80
2013,07,29,00,49,14.80
2013,07,29,00,50,14.80
2013,07,29,00,51,14.80
2013,07,29,00,52,14.80
2013,07,29,00,53,14.80
2013,07,29,00,54,14.80
2013,07,29,00,55,14.80
2013,07,29,00,56,14.80
2013,07,29,00,57,14.80
2013,07,29,00,58,14.80
2013,07,29,00,59,14.80
2013,07,29,01,00,14.80
2013,07,29,01,01,14.80
2013,07,29,01,02,14.80
2013,07,29,01,03,14.80
2013,07,29,01,04,14.80
2013,07,29,01,05,14.80
2013,07,29,01,06,14.80
2013,07,29,01,07,14.70
2013,07,29,01,08,14.70
2013,07,29,01,09,14.70
2013,07,29,01,10,14.70
2013,07,29,01,11,14.70
2013,07,29,01,12,14.70
2013,07,29,01,13,14.70
2013,07,29,01,14,14.70
2013,07,29,01,15,14.70
2013,07,29,01,16,14.70
2013,07,29,01,17,14.70
2013,07,29,01,18,14.60
2013,07,29,01,19,14.60
2013,07,29,01,20,14.60
2013,07,29,01,21,14.60
2013,07,29,01,22,14.60
2013,07,29,01,23,14.60
2013,07,29,01,24,14.60
2013,07,29,01,25,14.60
2013,07,29,01,26,14.60
2013,07,29,01,27,14.60
2013,07,29,01,28,14.50
2013,07,29,01,29,14.50
2013,07,29,01,30,14.50
2013,07,29,01,31,14.50
2013,07,29,01,32,14.50
2013,07,29,01,33,14.40
2013,07,29,01,34,14.40
2013,07,29,01,35,14.40
2013,07,29,01,36,14.40
2013,07,29,01,37,14.40
2013,07,29,01,38,14.40
2013,07,29,01,39,14.30
2013,07,29,01,40,14.30
2013,07,29,01,41,14.30
2013,07,29,01,42,14.30
2013,07,29,01,43,14.30
2013,07,29,01,44,14.30
2013,07,29,01,45,14.30
2013,07,29,01,46,14.30
2013,07,29,01,47,14.20
2013,07,29,01,48,14.20
2013,07,29,01,49,14.20
2013,07,29,01,50,14.20
2013,07,29,01,51,14.20
2013,07,29,01,52,14.20
2013,07,29,01,53,14.20
2013,07,29,01,54,14.20
2013,07,29,01,55,14.20
2013,07,29,01,56,14.20
2013,07,29,01,57,14.20
2013,07,29,01,58,14.10
2013,07,29,01,59,14.10
2013,07,29,02,00,14.10
2013,07,29,02,01,14.10
2013,07,29,02,02,14.10
2013,07,29,02,03,14.10
2013,07,29,02,04,14.10
2013,07,29,02,05,14.10
2013,07,29,02,06,14.10
2013,07,29,02,07,14.10
2013,07,29,02,08,14.10
2013,07,29,02,09,14.00
2013,07,29,02,10,14.00
2013,07,29,02,11,14.00
2013,07,29,02,12,14.00
2013,07,29,02,13,14.00
2013,07,29,02,14,14.00
2013,07,29,02,15,13.90
2013,07,29,02,16,13.90
2013,07,29,02,17,13.90
2013,07,29,02,18,13.90
2013,07,29,02,19,13.90
2013,07,29,02,20,13.90
2013,07,29,02,21,13.90
2013,07,29,02,22,13.90
2013,07,29,02,23,13.90
2013,07,29,02,24,13.90
2013,07,29,02,25,13.80
2013,07,29,02,26,13.80
2013,07,29,02,27,13.80
2013,07,29,02,28,13.80
2013,07,29,02,29,13.80
2013,07,29,02,30,13.80
2013,07,29,02,31,13.80
2013,07,29,02,32,13.70
2013,07,29,02,33,13.70
2013,07,29,02,34,13.70
2013,07,29,02,35,13.70
2013,07,29,02,36,13.60
2013,07,29,02,37,13.60
2013,07,29,02,38,13.60
2013,07,29,02,39,13.50
2013,07,29,02,40,13.50
2013,07,29,02,41,13.40
2013,07,29,02,42,13.40
2013,07,29,02,43,13.40
2013,07,29,02,44,13.30
2013,07,29,02,45,13.30
2013,07,29,02,46,13.30
2013,07,29,02,47,13.30
2013,07,29,02,48,13.20
2013,07,29,02,49,13.20
2013,07,29,02,50,13.20
2013,07,29,02,51,13.10
2013,07,29,02,52,13.10
2013,07,29,02,53,13.10
2013,07,29,02,54,13.10
2013,07,29,02,55,13.00
2013,07,29,02,56,13.00
2013,07,29,02,57,12.90
2013,07,29,02,58,12.90
2013,07,29,02,59,12.90
2013,07,29,03,00,12.90
2013,07,29,03,01,12.80
2013,07,29,03,02,12.80
2013,07,29,03,03,12.80
2013,07,29,03,04,12.80
2013,07,29,03,05,12.80
2013,07,29,03,06,12.80
2013,07,29,03,07,12.80
2013,07,29,03,08,12.70
2013,07,29,03,09,12.70
2013,07,29,03,10,12.70
2013,07,29,03,11,12.70
2013,07,29,03,12,12.70
2013,07,29,03,13,12.70
2013,07,29,03,14,12.70
2013,07,29,03,15,12.70
2013,07,29,03,16,12.60
2013,07,29,03,17,12.60
2013,07,29,03,18,12.60
2013,07,29,03,19,12.60
2013,07,29,03,20,12.60
2013,07,29,03,21,12.50
2013,07,29,03,22,12.50
2013,07,29,03,23,12.50
2013,07,29,03,24,12.50
2013,07,29,03,25,12.50
2013,07,29,03,26,12.40
2013,07,29,03,27,12.40
2013,07,29,03,28,12.40
2013,07,29,03,29,12.40
2013,07,29,03,30,12.40
2013,07,29,03,31,12.30
2013,07,29,03,32,12.30
2013,07,29,03,33,12.30
2013,07,29,03,34,12.30
2013,07,29,03,35,12.30
2013,07,29,03,36,12.30
2013,07,29,03,37,12.30
2013,07,29,03,38,12.20
2013,07,29,03,39,12.20
2013,07,29,03,40,12.20
2013,07,29,03,41,12.20
2013,07,29,03,42,12.20
2013,07,29,03,43,12.10
2013,07,29,03,44,12.10
2013,07,29,03,45,12.10
2013,07,29,03,46,12.10
2013,07,29,03,47,12.10
2013,07,29,03,48,12.00
2013,07,29,03,49,12.00
2013,07,29,03,50,12.00
2013,07,29,03,51,12.00
2013,07,29,03,52,11.90
2013,07,29,03,53,11.90
2013,07,29,03,54,11.90
2013,07,29,03,55,11.90
2013,07,29,03,56,11.90
2013,07,29,03,57,11.90
2013,07,29,03,58,11.90
2013,07,29,03,59,11.90
2013,07,29,04,00,11.90
2013,07,29,04,01,11.80
2013,07,29,04,02,11.80
2013,07,29,04,03,11.80
2013,07,29,04,04,11.80
2013,07,29,04,05,11.80
2013,07,29,04,06,11.80
2013,07,29,04,07,11.80
2013,07,29,04,08,11.80
2013,07,29,04,09,11.80
2013,07,29,04,10,11.80
2013,07,29,04,11,11.80
2013,07,29,04,12,11.80
2013,07,29,04,13,11.80
2013,07,29,04,14,11.70
2013,07,29,04,15,11.70
2013,07,29,04,16,11.70
2013,07,29,04,17,11.70
2013,07,29,04,18,11.70
2013,07,29,04,19,11.70
2013,07,29,04,20,11.70
2013,07,29,04,21,11.70
2013,07,29,04,22,11.60
2013,07,29,04,23,11.60
2013,07,29,04,24,11.60
2013,07,29,04,25,11.60
2013,07,29,04,26,11.60
2013,07,29,04,27,11.60
2013,07,29,04,28,11.60
2013,07,29,04,29,11.60
2013,07,29,04,30,11.50
2013,07,29,04,31,11.50
2013,07,29,04,32,11.50
2013,07,29,04,33,11.50
2013,07,29,04,34,11.50
2013,07,29,04,35,11.50
2013,07,29,04,36,11.50
2013,07,29,04,37,11.50
2013,07,29,04,38,11.50
2013,07,29,04,39,11.50
2013,07,29,04,40,11.40
2013,07,29,04,41,11.40
2013,07,29,04,42,11.40
2013,07,29,04,43,11.40
2013,07,29,04,44,11.40
2013,07,29,04,45,11.40
2013,07,29,04,46,11.40
2013,07,29,04,47,11.40
2013,07,29,04,48,11.40
2013,07,29,04,49,11.40
2013,07,29,04,50,11.40
2013,07,29,04,51,11.30
2013,07,29,04,52,11.30
2013,07,29,04,53,11.30
2013,07,29,04,54,11.30
2013,07,29,04,55,11.30
2013,07,29,04,56,11.30
2013,07,29,04,57,11.30
2013,07,29,04,58,11.30
2013,07,29,04,59,11.30
2013,07,29,05,00,11.30
2013,07,29,05,01,11.30
2013,07,29,05,02,11.30
2013,07,29,05,03,11.30
2013,07,29,05,04,11.30
2013,07,29,05,05,11.30
2013,07,29,05,06,11.30
2013,07,29,05,07,11.30
2013,07,29,05,08,11.30
2013,07,29,05,09,11.30
2013,07,29,05,10,11.30
2013,07,29,05,11,11.30
2013,07,29,05,12,11.30
2013,07,29,05,13,11.30
2013,07,29,05,14,11.30
2013,07,29,05,15,11.30
2013,07,29,05,16,11.20
2013,07,29,05,17,11.20
2013,07,29,05,18,11.20
2013,07,29,05,19,11.20
2013,07,29,05,20,11.20
2013,07,29,05,21,11.20
2013,07,29,05,22,11.20
2013,07,29,05,23,11.20
2013,07,29,05,24,11.20
2013,07,29,05,25,11.20
2013,07,29,05,26,11.20
2013,07,29,05,27,11.20
2013,07,29,05,28,11.20
2013,07,29,05,29,11.20
2013,07,29,05,30,11.20
2013,07,29,05,31,11.20
2013,07,29,05,32,11.20
2013,07,29,05,33,11.20
2013,07,29,05,34,11.20
2013,07,29,05,35,11.20
2013,07,29,05,36,11.20
2013,07,29,05,37,11.20
2013,07,29,05,38,11.20
2013,07,29,05,39,11.20
2013,07,29,05,40,11.20
2013,07,29,05,41,11.20
2013,07,29,05,42,11.20
2013,07,29,05,43,11.20
2013,07,29,05,44,11.20
2013,07,29,05,45,11.20
2013,07,29,05,46,11.20
2013,07,29,05,47,11.20
2013,07,29,05,48,11.10
2013,07,29,05,49,11.10
2013,07,29,05,50,11.10
2013,07,29,05,51,11.10
2013,07,29,05,52,11.10
2013,07,29,05,53,11.10
2013,07,29,05,54,11.10
2013,07,29,05,55,11.10
2013,07,29,05,56,11.10
2013,07,29,05,57,11.10
2013,07,29,05,58,11.10
2013,07,29,05,59,11.10
2013,07,29,06,00,11.10
2013,07,29,06,01,11.10
2013,07,29,06,02,11.10
2013,07,29,06,03,11.10
2013,07,29,06,04,11.10
2013,07,29,06,05,11.10
2013,07,29,06,06,11.10
2013,07,29,06,07,11.10
2013,07,29,06,08,11.10
2013,07,29,06,09,11.10
2013,07,29,06,10,11.10
2013,07,29,06,11,11.10
2013,07,29,06,12,11.10
2013,07,29,06,13,11.10
2013,07,29,06,14,11.10
2013,07,29,06,15,11.10
2013,07,29,06,16,11.10
2013,07,29,06,17,11.10
2013,07,29,06,18,11.10
2013,07,29,06,19,11.00
2013,07,29,06,20,11.10
2013,07,29,06,21,11.00
2013,07,29,06,22,11.10
2013,07,29,06,23,11.10
2013,07,29,06,24,11.10
2013,07,29,06,25,11.10
2013,07,29,06,26,11.10
2013,07,29,06,27,11.10
2013,07,29,06,28,11.10
2013,07,29,06,29,11.10
2013,07,29,06,30,11.10
2013,07,29,06,31,11.10
2013,07,29,06,32,11.10
2013,07,29,06,33,11.10
2013,07,29,06,34,11.10
2013,07,29,06,35,11.10
2013,07,29,06,36,11.10
2013,07,29,06,37,11.10
2013,07,29,06,38,11.10
2013,07,29,06,39,11.10
2013,07,29,06,40,11.10
2013,07,29,06,41,11.10
2013,07,29,06,42,11.10
2013,07,29,06,43,11.10
2013,07,29,06,44,11.10
2013,07,29,06,45,11.20
2013,07,29,06,46,11.20
2013,07,29,06,47,11.20
2013,07,29,06,48,11.20
2013,07,29,06,49,11.20
2013,07,29,06,50,11.20
2013,07,29,06,51,11.20
2013,07,29,06,52,11.20
2013,07,29,06,53,11.20
2013,07,29,06,54,11.20
2013,07,29,06,55,11.30
2013,07,29,06,56,11.30
2013,07,29,06,57,11.30
2013,07,29,06,58,11.30
2013,07,29,06,59,11.30
2013,07,29,07,00,11.30
2013,07,29,07,01,11.30
2013,07,29,07,02,11.40
2013,07,29,07,03,11.40
2013,07,29,07,04,11.40
2013,07,29,07,05,11.40
2013,07,29,07,06,11.40
2013,07,29,07,07,11.50
2013,07,29,07,08,11.50
2013,07,29,07,09,11.50
2013,07,29,07,10,11.60
2013,07,29,07,11,11.60
2013,07,29,07,12,11.60
2013,07,29,07,13,11.60
2013,07,29,07,14,11.60
2013,07,29,07,15,11.70
2013,07,29,07,16,11.70
2013,07,29,07,17,11.70
2013,07,29,07,18,11.70
2013,07,29,07,19,11.70
2013,07,29,07,20,11.70
2013,07,29,07,21,11.70
2013,07,29,07,22,11.70
2013,07,29,07,23,11.80
2013,07,29,07,24,11.80
2013,07,29,07,25,11.80
2013,07,29,07,26,11.80
2013,07,29,07,27,11.80
2013,07,29,07,28,11.80
2013,07,29,07,29,11.90
2013,07,29,07,30,11.90
2013,07,29,07,31,11.90
2013,07,29,07,32,12.00
2013,07,29,07,33,12.00
2013,07,29,07,34,12.00
2013,07,29,07,35,12.10
2013,07,29,07,36,12.10
2013,07,29,07,37,12.10
2013,07,29,07,38,12.20
2013,07,29,07,39,12.20
2013,07,29,07,40,12.20
2013,07,29,07,41,12.30
2013,07,29,07,42,12.30
2013,07,29,07,43,12.30
2013,07,29,07,44,12.40
2013,07,29,07,45,12.40
2013,07,29,07,46,12.50
2013,07,29,07,47,12.50
2013,07,29,07,48,12.60
2013,07,29,07,49,12.60
2013,07,29,07,50,12.70
2013,07,29,07,51,12.70
2013,07,29,07,52,12.80
2013,07,29,07,53,12.80
2013,07,29,07,54,12.80
2013,07,29,07,55,12.90
2013,07,29,07,56,12.90
2013,07,29,07,57,12.90
2013,07,29,07,58,13.00
2013,07,29,07,59,13.10
2013,07,29,08,00,13.10
2013,07,29,08,01,13.20
2013,07,29,08,02,13.20
2013,07,29,08,03,13.30
2013,07,29,08,04,13.30
2013,07,29,08,05,13.40
2013,07,29,08,06,13.50
2013,07,29,08,07,13.50
2013,07,29,08,08,13.60
2013,07,29,08,09,13.70
2013,07,29,08,10,13.80
2013,07,29,08,11,13.90
2013,07,29,08,12,13.90
2013,07,29,08,13,14.00
2013,07,29,08,14,14.10
2013,07,29,08,15,14.10
2013,07,29,08,16,14.10
2013,07,29,08,17,14.10
2013,07,29,08,18,14.10
2013,07,29,08,19,14.10
2013,07,29,08,20,14.10
2013,07,29,08,21,14.20
2013,07,29,08,22,14.20
2013,07,29,08,23,14.20
2013,07,29,08,24,14.20
2013,07,29,08,25,14.30
2013,07,29,08,26,14.30
2013,07,29,08,27,14.30
2013,07,29,08,28,14.30
2013,07,29,08,29,14.30
2013,07,29,08,30,14.30
2013,07,29,08,31,14.30
2013,07,29,08,32,14.30
2013,07,29,08,33,14.30
2013,07,29,08,34,14.30
2013,07,29,08,35,14.40
2013,07,29,08,36,14.40
2013,07,29,08,37,14.40
2013,07,29,08,38,14.40
2013,07,29,08,39,14.40
2013,07,29,08,40,14.50
2013,07,29,08,41,14.50
2013,07,29,08,42,14.50
2013,07,29,08,43,14.50
2013,07,29,08,44,14.50
2013,07,29,08,45,14.50
2013,07,29,08,46,14.50
2013,07,29,08,47,14.50
2013,07,29,08,48,14.50
2013,07,29,08,49,14.50
2013,07,29,08,50,14.40
2013,07,29,08,51,14.40
2013,07,29,08,52,14.40
2013,07,29,08,53,14.40
2013,07,29,08,54,14.40
2013,07,29,08,55,14.40
2013,07,29,08,56,14.40
2013,07,29,08,57,14.40
2013,07,29,08,58,14.40
2013,07,29,08,59,14.50
2013,07,29,09,00,14.50
2013,07,29,09,01,14.50
2013,07,29,09,02,14.60
2013,07,29,09,03,14.60
2013,07,29,09,04,14.60
2013,07,29,09,05,14.60
2013,07,29,09,06,14.70
2013,07,29,09,07,14.70
2013,07,29,09,08,14.70
2013,07,29,09,09,14.70
2013,07,29,09,10,14.70
2013,07,29,09,11,14.70
2013,07,29,09,12,14.80
2013,07,29,09,13,14.80
2013,07,29,09,14,14.80
2013,07,29,09,15,14.80
2013,07,29,09,16,14.90
2013,07,29,09,17,14.90
2013,07,29,09,18,15.00
2013,07,29,09,19,15.00
2013,07,29,09,20,15.00
2013,07,29,09,21,15.00
2013,07,29,09,22,15.00
2013,07,29,09,23,15.10
2013,07,29,09,24,15.10
2013,07,29,09,25,15.10
2013,07,29,09,26,15.20
2013,07,29,09,27,15.30
2013,07,29,09,28,15.30
2013,07,29,09,29,15.30
2013,07,29,09,30,15.40
2013,07,29,09,31,15.40
2013,07,29,09,32,15.50
2013,07,29,09,33,15.60
2013,07,29,09,34,15.60
2013,07,29,09,35,15.60
2013,07,29,09,36,15.60
2013,07,29,09,37,15.60
2013,07,29,09,38,15.60
2013,07,29,09,39,15.70
2013,07,29,09,40,15.70
2013,07,29,09,41,15.80
2013,07,29,09,42,15.80
2013,07,29,09,43,15.90
2013,07,29,09,44,15.90
2013,07,29,09,45,15.90
2013,07,29,09,46,15.90
2013,07,29,09,47,15.90
2013,07,29,09,48,15.90
2013,07,29,09,49,15.90
2013,07,29,09,50,15.90
2013,07,29,09,51,15.90
2013,07,29,09,52,15.90
2013,07,29,09,53,16.00
2013,07,29,09,54,16.00
2013,07,29,09,55,16.00
2013,07,29,09,56,16.00
2013,07,29,09,57,16.00
2013,07,29,09,58,16.00
2013,07,29,09,59,16.00
2013,07,29,10,00,16.10
2013,07,29,10,01,16.20
2013,07,29,10,02,16.30
2013,07,29,10,03,16.30
2013,07,29,10,04,16.30
2013,07,29,10,05,16.30
2013,07,29,10,06,16.30
2013,07,29,10,07,16.30
2013,07,29,10,08,16.30
2013,07,29,10,09,16.30
2013,07,29,10,10,16.40
2013,07,29,10,11,16.40
2013,07,29,10,12,16.40
2013,07,29,10,13,16.40
2013,07,29,10,14,16.40
2013,07,29,10,15,16.50
2013,07,29,10,16,16.50
2013,07,29,10,17,16.60
2013,07,29,10,18,16.60
2013,07,29,10,19,16.60
2013,07,29,10,20,16.60
2013,07,29,10,21,16.50
2013,07,29,10,22,16.50
2013,07,29,10,23,16.40
2013,07,29,10,24,16.40
2013,07,29,10,25,16.50
2013,07,29,10,26,16.50
2013,07,29,10,27,16.60
2013,07,29,10,28,16.70
2013,07,29,10,29,16.80
2013,07,29,10,30,16.80
2013,07,29,10,31,16.80
2013,07,29,10,32,16.80
2013,07,29,10,33,16.80
2013,07,29,10,34,16.80
2013,07,29,10,35,16.80
2013,07,29,10,36,16.80
2013,07,29,10,37,16.80
2013,07,29,10,38,16.90
2013,07,29,10,39,16.90
2013,07,29,10,40,16.90
2013,07,29,10,41,17.00
2013,07,29,10,42,17.00
2013,07,29,10,43,17.00
2013,07,29,10,44,16.90
2013,07,29,10,45,17.00
2013,07,29,10,46,16.90
2013,07,29,10,47,16.90
2013,07,29,10,48,16.80
2013,07,29,10,49,16.80
2013,07,29,10,50,16.70
2013,07,29,10,51,16.70
2013,07,29,10,52,16.70
2013,07,29,10,53,16.60
2013,07,29,10,54,16.60
2013,07,29,10,55,16.50
2013,07,29,10,56,16.50
2013,07,29,10,57,16.40
2013,07,29,10,58,16.40
2013,07,29,10,59,16.30
2013,07,29,11,00,16.30
2013,07,29,11,01,16.30
2013,07,29,11,02,16.30
2013,07,29,11,03,16.30
2013,07,29,11,04,16.40
2013,07,29,11,05,16.50
2013,07,29,11,06,16.60
2013,07,29,11,07,16.60
2013,07,29,11,08,16.60
2013,07,29,11,09,16.70
2013,07,29,11,10,16.80
2013,07,29,11,11,16.80
2013,07,29,11,12,16.80
2013,07,29,11,13,16.80
2013,07,29,11,14,16.80
2013,07,29,11,15,16.90
2013,07,29,11,16,16.90
2013,07,29,11,17,16.90
2013,07,29,11,18,17.00
2013,07,29,11,19,17.00
2013,07,29,11,20,17.10
2013,07,29,11,21,17.10
2013,07,29,11,22,17.20
2013,07,29,11,23,17.20
2013,07,29,11,24,17.10
2013,07,29,11,25,17.00
2013,07,29,11,26,16.90
2013,07,29,11,27,16.80
2013,07,29,11,28,16.80
2013,07,29,11,29,16.80
2013,07,29,11,30,16.90
2013,07,29,11,31,17.00
2013,07,29,11,32,17.10
2013,07,29,11,33,17.20
2013,07,29,11,34,17.20
2013,07,29,11,35,17.30
2013,07,29,11,36,17.40
2013,07,29,11,37,17.40
2013,07,29,11,38,17.40
2013,07,29,11,39,17.40
2013,07,29,11,40,17.40
2013,07,29,11,41,17.50
2013,07,29,11,42,17.50
2013,07,29,11,43,17.50
2013,07,29,11,44,17.50
2013,07,29,11,45,17.40
2013,07,29,11,46,17.40
2013,07,29,11,47,17.40
2013,07,29,11,48,17.40
2013,07,29,11,49,17.40
2013,07,29,11,50,17.40
2013,07,29,11,51,17.30
2013,07,29,11,52,17.20
2013,07,29,11,53,17.20
2013,07,29,11,54,17.00
2013,07,29,11,55,17.00
2013,07,29,11,56,16.90
2013,07,29,11,57,16.90
2013,07,29,11,58,17.00
2013,07,29,11,59,17.00
2013,07,29,12,00,17.00
2013,07,29,12,01,16.90
2013,07,29,12,02,16.80
2013,07,29,12,03,16.70
2013,07,29,12,04,16.60
2013,07,29,12,05,16.60
2013,07,29,12,06,16.60
2013,07,29,12,07,16.60
2013,07,29,12,08,16.80
2013,07,29,12,09,16.80
2013,07,29,12,10,16.90
2013,07,29,12,11,17.00
2013,07,29,12,12,17.10
2013,07,29,12,13,17.10
2013,07,29,12,14,17.00
2013,07,29,12,15,16.90
2013,07,29,12,16,16.90
2013,07,29,12,17,16.80
2013,07,29,12,18,16.70
2013,07,29,12,19,16.70
2013,07,29,12,20,16.60
2013,07,29,12,21,16.60
2013,07,29,12,22,16.50
2013,07,29,12,23,16.50
2013,07,29,12,24,16.40
2013,07,29,12,25,16.40
2013,07,29,12,26,16.40
2013,07,29,12,27,16.40
2013,07,29,12,28,16.40
2013,07,29,12,29,16.40
2013,07,29,12,30,16.40
2013,07,29,12,31,16.40
2013,07,29,12,32,16.40
2013,07,29,12,33,16.50
2013,07,29,12,34,16.50
2013,07,29,12,35,16.50
2013,07,29,12,36,16.50
2013,07,29,12,37,16.40
2013,07,29,12,38,16.40
2013,07,29,12,39,16.40
2013,07,29,12,40,16.40
2013,07,29,12,41,16.40
2013,07,29,12,42,16.40
2013,07,29,12,43,16.30
2013,07,29,12,44,16.30
2013,07,29,12,45,16.30
2013,07,29,12,46,16.30
2013,07,29,12,47,16.30
2013,07,29,12,48,16.30
2013,07,29,12,49,16.30
2013,07,29,12,50,16.40
2013,07,29,12,51,16.40
2013,07,29,12,52,16.50
2013,07,29,12,53,16.60
2013,07,29,12,54,16.60
2013,07,29,12,55,16.70
2013,07,29,12,56,16.80
2013,07,29,12,57,16.80
2013,07,29,12,58,16.80
2013,07,29,12,59,16.80
2013,07,29,13,00,16.80
2013,07,29,13,01,16.80
2013,07,29,13,02,16.80
2013,07,29,13,03,16.80
2013,07,29,13,04,16.80
2013,07,29,13,05,16.80
2013,07,29,13,06,16.80
2013,07,29,13,07,16.80
2013,07,29,13,08,16.80
2013,07,29,13,09,16.80
2013,07,29,13,10,16.80
2013,07,29,13,11,16.80
2013,07,29,13,12,16.70
2013,07,29,13,13,16.70
2013,07,29,13,14,16.70
2013,07,29,13,15,16.70
2013,07,29,13,16,16.60
2013,07,29,13,17,16.60
2013,07,29,13,18,16.60
2013,07,29,13,19,16.60
2013,07,29,13,20,16.60
2013,07,29,13,21,16.50
2013,07,29,13,22,16.50
2013,07,29,13,23,16.40
2013,07,29,13,24,16.40
2013,07,29,13,25,16.40
2013,07,29,13,26,16.40
2013,07,29,13,27,16.40
2013,07,29,13,28,16.50
2013,07,29,13,29,16.50
2013,07,29,13,30,16.50
2013,07,29,13,31,16.40
2013,07,29,13,32,16.40
2013,07,29,13,33,16.40
2013,07,29,13,34,16.50
2013,07,29,13,35,16.50
2013,07,29,13,36,16.60
2013,07,29,13,37,16.70
2013,07,29,13,38,16.70
2013,07,29,13,39,16.80
2013,07,29,13,40,16.80
2013,07,29,13,41,16.90
2013,07,29,13,42,17.00
2013,07,29,13,43,17.10
2013,07,29,13,44,17.10
2013,07,29,13,45,17.10
2013,07,29,13,46,17.10
2013,07,29,13,47,17.10
2013,07,29,13,48,17.10
2013,07,29,13,49,17.10
2013,07,29,13,50,17.10
2013,07,29,13,51,17.10
2013,07,29,13,52,17.20
2013,07,29,13,53,17.20
2013,07,29,13,54,17.30
2013,07,29,13,55,17.40
2013,07,29,13,56,17.40
2013,07,29,13,57,17.50
2013,07,29,13,58,17.50
2013,07,29,13,59,17.40
2013,07,29,14,00,17.40
2013,07,29,14,01,17.40
2013,07,29,14,02,17.40
2013,07,29,14,03,17.40
2013,07,29,14,04,17.40
2013,07,29,14,05,17.40
2013,07,29,14,06,17.40
2013,07,29,14,07,17.50
2013,07,29,14,08,17.50
2013,07,29,14,09,17.60
2013,07,29,14,10,17.60
2013,07,29,14,11,17.70
2013,07,29,14,12,17.80
2013,07,29,14,13,17.80
2013,07,29,14,14,17.90
2013,07,29,14,15,17.90
2013,07,29,14,16,17.90
2013,07,29,14,17,17.90
2013,07,29,14,18,17.90
2013,07,29,14,19,17.90
2013,07,29,14,20,17.90
2013,07,29,14,21,17.90
2013,07,29,14,22,17.90
2013,07,29,14,23,18.00
2013,07,29,14,24,18.10
2013,07,29,14,25,18.10
2013,07,29,14,26,18.20
2013,07,29,14,27,18.20
2013,07,29,14,28,18.20
2013,07,29,14,29,18.20
2013,07,29,14,30,18.20
2013,07,29,14,31,18.20
2013,07,29,14,32,18.20
2013,07,29,14,33,18.20
2013,07,29,14,34,18.20
2013,07,29,14,35,18.30
2013,07,29,14,36,18.30
2013,07,29,14,37,18.40
2013,07,29,14,38,18.50
2013,07,29,14,39,18.60
2013,07,29,14,40,18.70
2013,07,29,14,41,18.70
2013,07,29,14,42,18.80
2013,07,29,14,43,18.80
2013,07,29,14,44,18.90
2013,07,29,14,45,19.00
2013,07,29,14,46,19.00
2013,07,29,14,47,19.10
2013,07,29,14,48,19.10
2013,07,29,14,49,19.20
2013,07,29,14,50,19.20
2013,07,29,14,51,19.30
2013,07,29,14,52,19.30
2013,07,29,14,53,19.30
2013,07,29,14,54,19.40
2013,07,29,14,55,19.50
2013,07,29,14,56,19.60
2013,07,29,14,57,19.70
2013,07,29,14,58,19.70
2013,07,29,14,59,19.80
2013,07,29,15,00,19.90
2013,07,29,15,01,19.90
2013,07,29,15,02,19.90
2013,07,29,15,03,19.90
2013,07,29,15,04,20.00
2013,07,29,15,05,20.00
2013,07,29,15,06,20.10
2013,07,29,15,07,20.10
2013,07,29,15,08,20.20
2013,07,29,15,09,20.30
2013,07,29,15,10,20.30
2013,07,29,15,11,20.40
2013,07,29,15,12,20.40
2013,07,29,15,13,20.50
2013,07,29,15,14,20.50
2013,07,29,15,15,20.60
2013,07,29,15,16,20.60
2013,07,29,15,17,20.60
2013,07,29,15,18,20.60
2013,07,29,15,19,20.60
2013,07,29,15,20,20.60
2013,07,29,15,21,20.60
2013,07,29,15,22,20.60
2013,07,29,15,23,20.60
2013,07,29,15,24,20.70
2013,07,29,15,25,20.70
2013,07,29,15,26,20.80
2013,07,29,15,27,20.80
2013,07,29,15,28,20.90
2013,07,29,15,29,21.00
2013,07,29,15,30,21.00
2013,07,29,15,31,20.90
2013,07,29,15,32,20.90
2013,07,29,15,33,20.90
2013,07,29,15,34,20.80
2013,07,29,15,35,20.70
2013,07,29,15,36,20.60
2013,07,29,15,37,20.60
2013,07,29,15,38,20.60
2013,07,29,15,39,20.60
2013,07,29,15,40,20.60
2013,07,29,15,41,20.60
2013,07,29,15,42,20.70
2013,07,29,15,43,20.70
2013,07,29,15,44,20.70
2013,07,29,15,45,20.80
2013,07,29,15,46,20.80
2013,07,29,15,47,20.90
2013,07,29,15,48,20.90
2013,07,29,15,49,21.00
2013,07,29,15,50,20.90
2013,07,29,15,51,20.90
2013,07,29,15,52,20.90
2013,07,29,15,53,20.90
2013,07,29,15,54,20.90
2013,07,29,15,55,20.80
2013,07,29,15,56,20.80
2013,07,29,15,57,20.80
2013,07,29,15,58,20.80
2013,07,29,15,59,20.80
2013,07,29,16,00,20.70
2013,07,29,16,01,20.70
2013,07,29,16,02,20.70
2013,07,29,16,03,20.70
2013,07,29,16,04,20.70
2013,07,29,16,05,20.70
2013,07,29,16,06,20.70
2013,07,29,16,07,20.80
2013,07,29,16,08,20.80
2013,07,29,16,09,20.80
2013,07,29,16,10,20.80
2013,07,29,16,11,20.90
2013,07,29,16,12,20.90
2013,07,29,16,13,20.90
2013,07,29,16,14,21.00
2013,07,29,16,15,21.00
2013,07,29,16,16,21.10
2013,07,29,16,17,21.10
2013,07,29,16,18,21.20
2013,07,29,16,19,21.30
2013,07,29,16,20,21.30
2013,07,29,16,21,21.40
2013,07,29,16,22,21.40
2013,07,29,16,23,21.40
2013,07,29,16,24,21.40
2013,07,29,16,25,21.40
2013,07,29,16,26,21.40
2013,07,29,16,27,21.40
2013,07,29,16,28,21.40
2013,07,29,16,29,21.40
2013,07,29,16,30,21.50
2013,07,29,16,31,21.50
2013,07,29,16,32,21.50
2013,07,29,16,33,21.50
2013,07,29,16,34,21.50
2013,07,29,16,35,21.50
2013,07,29,16,36,21.50
2013,07,29,16,37,21.50
2013,07,29,16,38,21.50
2013,07,29,16,39,21.60
2013,07,29,16,40,21.50
2013,07,29,16,41,21.50
2013,07,29,16,42,21.50
2013,07,29,16,43,21.50
2013,07,29,16,44,21.50
2013,07,29,16,45,21.60
2013,07,29,16,46,21.60
2013,07,29,16,47,21.60
2013,07,29,16,48,21.60
2013,07,29,16,49,21.60
2013,07,29,16,50,21.60
2013,07,29,16,51,21.60
2013,07,29,16,52,21.60
2013,07,29,16,53,21.70
2013,07,29,16,54,21.70
2013,07,29,16,55,21.70
2013,07,29,16,56,21.70
2013,07,29,16,57,21.80
2013,07,29,16,58,21.80
2013,07,29,16,59,21.80
2013,07,29,17,00,21.80
2013,07,29,17,01,21.90
2013,07,29,17,02,21.90
2013,07,29,17,03,21.90
2013,07,29,17,04,21.90
2013,07,29,17,05,21.90
2013,07,29,17,06,21.90
2013,07,29,17,07,21.90
2013,07,29,17,08,21.90
2013,07,29,17,09,21.90
2013,07,29,17,10,21.90
2013,07,29,17,11,22.00
2013,07,29,17,12,22.00
2013,07,29,17,13,22.00
2013,07,29,17,14,22.10
2013,07,29,17,15,22.10
2013,07,29,17,16,22.10
2013,07,29,17,17,22.10
2013,07,29,17,18,22.10
2013,07,29,17,19,22.10